Wheeler AAF, HI

3:58 AM HST on July 25, 2017 (GMT -1000)
Wheeler Army Air Field

Weather History for PHHI - January, 2013

Change the Weather History Date:

Thursday, January 24, 2013

  Actual Average Record
Temperature  
Mean Temperature 68 °F -  
Max Temperature 71 °F 74 °F 82 °F (2002)
Min Temperature 61 °F 61 °F 53 °F (2000)
Cooling Degree Days 2    
Growing Degree Days 18 (Base 50)    
Moisture  
Dew Point 65 °F    
Average Humidity 92    
Maximum Humidity 100    
Minimum Humidity 83    
Precipitation  
Precipitation 0.31 in - - ()
Sea Level Pressure  
Sea Level Pressure 30.03 in    
Wind  
Wind Speed 3 mph (SW)    
Max Wind Speed 7 mph    
Max Gust Speed -    
Visibility 8 miles    
Events Rain    
Averages and records for this station are not official NWS values.
T = Trace of Precipitation, MM = Missing Value Source: NWS Daily Summary

Daily Weather History Graph

Daily Weather History Graph

Search for Another Location

Airport or City:

Trip Planner

Search our weather history database for the weather conditions in past years. The results will help you decide how hot, cold, wet, or windy it might be!

Date:

Astronomy

Jan. 24, 2013 Rise Set
Actual Time 7:11 AM HST 6:17 PM HST
Civil Twilight 6:48 AM HST 6:40 PM HST
Nautical Twilight 6:21 AM HST 7:07 PM HST
Astronomical Twilight 5:54 AM HST 7:34 PM HST
Moon 4:32 PM HST (1/24) 5:13 AM HST (1/24)
Length of Visible Light 11h 52m
Length of Day
11h 05m
Waxing Gibbous, 95% of the Moon is Illuminated
Jan 24
Waxing Gibbous
Jan 26
Full
Feb 3
Last Quarter
Feb 9
New
Feb 17
First Quarter

Hourly Weather History & Observations

Time (HST) Temp. Dew Point Humidity Pressure Visibility Wind Dir Wind Speed Gust Speed Precip Events Conditions
12:14 AM 64.4 °F 62.6 °F 94% 30.03 in 10.0 mi West 4.6 mph - N/A   Clear
12:35 AM 64.4 °F 62.6 °F 94% 30.03 in 10.0 mi West 3.5 mph - N/A   Light Drizzle
12:44 AM 64.4 °F 62.6 °F 94% 30.03 in 10.0 mi West 3.5 mph - N/A   Clear
12:55 AM 64.8 °F 63.1 °F 94% 30.03 in 10.0 mi WNW 4.6 mph - 0.00 in   Clear
1:09 AM 66.2 °F 64.4 °F 94% 30.03 in 10.0 mi Calm Calm - N/A   Light Drizzle
1:11 AM 66.2 °F 64.4 °F 94% 30.03 in 8.0 mi Calm Calm - N/A   Light Drizzle
1:12 AM 66.2 °F 64.4 °F 94% 30.03 in 8.0 mi Calm Calm - N/A   Light Drizzle
1:21 AM 66.2 °F 64.4 °F 94% 30.03 in 3.0 mi NW 3.5 mph - N/A Rain Light Rain
1:35 AM 66.2 °F 64.4 °F 94% 30.02 in 10.0 mi West 4.6 mph - N/A   Light Drizzle
1:36 AM 66.2 °F 64.4 °F 94% 30.02 in 10.0 mi West 4.6 mph - N/A   Scattered Clouds
1:55 AM 65.1 °F 63.3 °F 94% 30.01 in 9.0 mi WNW 5.8 mph - 0.02 in Rain Light Rain
2:08 AM 66.2 °F 64.4 °F 94% 30.01 in 10.0 mi WNW 5.8 mph - N/A   Scattered Clouds
2:21 AM 66.2 °F 64.4 °F 94% 30.01 in 9.0 mi WNW 3.5 mph - N/A Rain Light Rain
2:27 AM 66.2 °F 64.4 °F 94% 30.01 in 6.0 mi WNW 3.5 mph - N/A Rain Light Rain
2:32 AM 66.2 °F 64.4 °F 94% 30.01 in 7.0 mi West 5.8 mph - N/A Rain Light Rain
2:44 AM 66.2 °F 64.4 °F 94% 30.01 in 10.0 mi WNW 3.5 mph - N/A   Scattered Clouds
2:50 AM 66.2 °F 64.4 °F 94% 30.01 in 10.0 mi NW 3.5 mph - N/A   Scattered Clouds
2:51 AM 66.2 °F 64.4 °F 94% 30.01 in 10.0 mi NW 3.5 mph - N/A   Scattered Clouds
2:52 AM 66.2 °F 64.4 °F 94% 30.01 in 10.0 mi NW 3.5 mph - N/A   Light Drizzle
2:55 AM 65.7 °F 63.9 °F 94% 30.00 in 8.0 mi Calm Calm - 0.00 in   Light Drizzle
2:57 AM 66.2 °F 64.4 °F 94% 30.00 in 6.0 mi Calm Calm - N/A Rain Rain
3:11 AM 66.2 °F 64.4 °F 94% 30.01 in 2.5 mi Calm Calm - N/A Rain Light Rain
3:13 AM 66.2 °F 64.4 °F 94% 30.01 in 3.0 mi SSE 3.5 mph - N/A Rain Rain
3:15 AM 66.2 °F 64.4 °F 94% 30.00 in 3.0 mi SSE 3.5 mph - N/A Rain Light Rain
3:18 AM 66.2 °F 64.4 °F 94% 30.00 in 3.0 mi Variable 3.5 mph - N/A Rain Light Rain
3:25 AM 66.2 °F 64.4 °F 94% 30.00 in 4.0 mi Calm Calm - N/A   Drizzle
3:37 AM 66.2 °F 64.4 °F 94% 30.00 in 7.0 mi Calm Calm - N/A   Light Drizzle
3:39 AM 64.4 °F 64.4 °F 100% 30.00 in 8.0 mi Calm Calm - N/A   Light Drizzle
3:40 AM 64.4 °F 64.4 °F 100% 30.00 in 8.0 mi Calm Calm - N/A   Mostly Cloudy
3:44 AM 64.4 °F 64.4 °F 100% 30.00 in 10.0 mi Calm Calm - N/A   Mostly Cloudy
3:51 AM 64.4 °F 64.4 °F 100% 30.00 in 10.0 mi Calm Calm - N/A   Light Drizzle
3:55 AM 65.3 °F 63.9 °F 95% 30.00 in 10.0 mi Calm Calm - 0.05 in   Light Drizzle
4:09 AM 66.2 °F 64.4 °F 94% 29.99 in 10.0 mi Calm Calm - N/A   Mostly Cloudy
4:17 AM 66.2 °F 64.4 °F 94% 30.00 in 10.0 mi NE 3.5 mph - N/A   Mostly Cloudy
4:19 AM 66.2 °F 64.4 °F 94% 30.00 in 10.0 mi NE 4.6 mph - N/A   Mostly Cloudy
4:21 AM 66.2 °F 64.4 °F 94% 30.00 in 10.0 mi NE 3.5 mph - N/A   Scattered Clouds
4:26 AM 66.2 °F 64.4 °F 94% 30.00 in 10.0 mi NE 4.6 mph - N/A   Light Drizzle
4:35 AM 66.2 °F 64.4 °F 94% 29.99 in 10.0 mi ENE 3.5 mph - N/A   Partly Cloudy
4:55 AM 65.5 °F 64.0 °F 95% 29.99 in 10.0 mi Calm Calm - 0.00 in   Scattered Clouds
5:55 AM 64.6 °F 63.1 °F 95% 30.01 in 10.0 mi Calm Calm - N/A   Mostly Cloudy
6:02 AM 64.4 °F 62.6 °F 94% 30.01 in 10.0 mi Calm Calm - N/A   Light Drizzle
6:04 AM 64.4 °F 64.4 °F 100% 30.01 in 9.0 mi Calm Calm - N/A   Light Drizzle
6:12 AM 66.2 °F 64.4 °F 94% 30.01 in 6.0 mi ENE 4.6 mph - N/A   Light Drizzle
6:24 AM 64.4 °F 62.6 °F 94% 30.01 in 10.0 mi NE 4.6 mph - N/A   Scattered Clouds
6:38 AM 64.4 °F 62.6 °F 94% 30.03 in 9.0 mi ENE 5.8 mph - N/A   Light Drizzle
6:42 AM 64.4 °F 62.6 °F 94% 30.03 in 6.0 mi East 5.8 mph - N/A   Drizzle
6:50 AM 64.4 °F 62.6 °F 94% 30.03 in 4.0 mi East 5.8 mph - N/A   Light Drizzle
6:54 AM 64.4 °F 62.6 °F 94% 30.03 in 5.0 mi ENE 4.6 mph - N/A   Light Drizzle
6:55 AM 64.9 °F 63.1 °F 94% 30.04 in 6.0 mi ENE 3.5 mph - 0.01 in   Light Drizzle
7:02 AM 64.4 °F 62.6 °F 94% 30.04 in 9.0 mi East 4.6 mph - N/A   Scattered Clouds
7:06 AM 64.4 °F 62.6 °F 94% 30.04 in 7.0 mi ENE 4.6 mph - N/A   Drizzle
7:15 AM 64.4 °F 62.6 °F 94% 30.04 in 2.5 mi ENE 3.5 mph - N/A Rain Light Rain
7:22 AM 64.4 °F 62.6 °F 94% 30.04 in 2.0 mi Calm Calm - N/A Rain Light Rain
7:32 AM 64.4 °F 62.6 °F 94% 30.04 in 3.0 mi Calm Calm - N/A Rain Light Rain
7:55 AM 64.8 °F 63.3 °F 95% 30.05 in 4.0 mi West 3.5 mph - 0.03 in   Light Drizzle
8:00 AM 64.4 °F 64.4 °F 100% 30.05 in 8.0 mi West 3.5 mph - N/A   Mostly Cloudy
8:01 AM 64.4 °F 64.4 °F 100% 30.05 in 9.0 mi West 3.5 mph - N/A   Mostly Cloudy
8:53 AM 66.2 °F 64.4 °F 94% 30.06 in 9.0 mi NW 3.5 mph - N/A Rain Light Rain
8:55 AM 66.0 °F 64.4 °F 94% 30.06 in 7.0 mi NW 3.5 mph - 0.01 in Rain Light Rain
8:58 AM 66.2 °F 64.4 °F 94% 30.06 in 5.0 mi Calm Calm - N/A Rain Light Rain
9:10 AM 66.2 °F 64.4 °F 94% 30.06 in 7.0 mi Calm Calm - N/A   Light Drizzle
9:14 AM 66.2 °F 64.4 °F 94% 30.06 in 10.0 mi Calm Calm - N/A   Mostly Cloudy
9:21 AM 66.2 °F 64.4 °F 94% 30.06 in 10.0 mi Calm Calm - N/A   Mostly Cloudy
9:35 AM 66.2 °F 64.4 °F 94% 30.07 in 10.0 mi Calm Calm - N/A   Mostly Cloudy
9:38 AM 68.0 °F 64.4 °F 88% 30.07 in 10.0 mi Calm Calm - N/A   Mostly Cloudy
9:41 AM 68.0 °F 64.4 °F 88% 30.07 in 7.0 mi Calm Calm - N/A   Light Drizzle
9:47 AM 68.0 °F 64.4 °F 88% 30.07 in 4.0 mi Calm Calm - N/A   Light Drizzle
9:55 AM 67.5 °F 65.1 °F 92% 30.07 in 7.0 mi Calm Calm - 0.00 in   Light Drizzle
10:03 AM 66.2 °F 64.4 °F 94% 30.07 in 2.5 mi Calm Calm - N/A Rain Rain
10:07 AM 66.2 °F 64.4 °F 94% 30.07 in 1.8 mi Calm Calm - N/A Rain Light Rain
10:09 AM 66.2 °F 64.4 °F 94% 30.07 in 2.0 mi Calm Calm - N/A Rain Light Rain
10:11 AM 66.2 °F 64.4 °F 94% 30.07 in 2.0 mi Calm Calm - N/A Rain Light Rain
10:14 AM 68.0 °F 64.4 °F 88% 30.08 in 3.0 mi Calm Calm - N/A Rain Light Rain
10:29 AM 68.0 °F 64.4 °F 88% 30.08 in 6.0 mi Calm Calm - N/A   Light Drizzle
10:33 AM 68.0 °F 64.4 °F 88% 30.08 in 8.0 mi Calm Calm - N/A   Mostly Cloudy
10:36 AM 68.0 °F 64.4 °F 88% 30.08 in 10.0 mi Calm Calm - N/A   Mostly Cloudy
10:40 AM 68.0 °F 66.2 °F 94% 30.08 in 10.0 mi SSW 3.5 mph - N/A   Mostly Cloudy
10:47 AM 68.0 °F 66.2 °F 94% 30.08 in 8.0 mi SSW 3.5 mph - N/A   Light Drizzle
10:55 AM 67.5 °F 65.5 °F 93% 30.08 in 3.0 mi Calm Calm - 0.04 in Rain Light Rain
11:08 AM 68.0 °F 66.2 °F 94% 30.07 in 9.0 mi WSW 3.5 mph - N/A   Overcast
11:10 AM 68.0 °F 66.2 °F 94% 30.07 in 10.0 mi Calm Calm - N/A   Overcast
11:13 AM 68.0 °F 66.2 °F 94% 30.07 in 10.0 mi Calm Calm - N/A   Overcast
11:26 AM 68.0 °F 66.2 °F 94% 30.07 in 10.0 mi Calm Calm - N/A   Light Drizzle
11:42 AM 68.0 °F 66.2 °F 94% 30.06 in 9.0 mi ENE 3.5 mph - N/A   Light Drizzle
11:43 AM 69.8 °F 66.2 °F 88% 30.06 in 9.0 mi Calm Calm - N/A   Mostly Cloudy
11:47 AM 69.8 °F 66.2 °F 88% 30.06 in 10.0 mi East 3.5 mph - N/A   Light Drizzle
11:55 AM 69.3 °F 66.4 °F 91% 30.05 in 6.0 mi Calm Calm - 0.00 in   Light Drizzle
12:01 PM 68.0 °F 66.2 °F 94% 30.05 in 5.0 mi Calm Calm - N/A   Light Drizzle
12:03 PM 68.0 °F 66.2 °F 94% 30.05 in 6.0 mi East 3.5 mph - N/A   Light Drizzle
12:09 PM 68.0 °F 66.2 °F 94% 30.04 in 10.0 mi East 3.5 mph - N/A   Light Drizzle
12:13 PM 69.8 °F 66.2 °F 88% 30.04 in 7.0 mi Calm Calm - N/A   Drizzle
12:14 PM 69.8 °F 66.2 °F 88% 30.04 in 7.0 mi Calm Calm - N/A   Light Drizzle
12:27 PM 69.8 °F 66.2 °F 88% 30.04 in 3.0 mi Variable 4.6 mph - N/A Rain Light Rain
12:28 PM 69.8 °F 66.2 °F 88% 30.04 in 2.5 mi SSE 4.6 mph - N/A Rain Light Rain
12:38 PM 68.0 °F 66.2 °F 94% 30.04 in 1.8 mi SE 3.5 mph - N/A Rain Light Rain
12:42 PM 68.0 °F 66.2 °F 94% 30.04 in 1.8 mi SE 6.9 mph - N/A Rain Rain
12:44 PM 68.0 °F 66.2 °F 94% 30.04 in 2.0 mi SE 5.8 mph - N/A Rain Light Rain
12:48 PM 68.0 °F 66.2 °F 94% 30.04 in 3.0 mi SE 3.5 mph - N/A Rain Light Rain
12:55 PM 68.7 °F 66.4 °F 92% 30.04 in 10.0 mi SSE 3.5 mph - 0.09 in   Overcast
1:01 PM 68.0 °F 66.2 °F 94% 30.03 in 10.0 mi Variable 3.5 mph - N/A   Mostly Cloudy
1:05 PM 68.0 °F 66.2 °F 94% 30.03 in 10.0 mi Calm Calm - N/A   Overcast
1:29 PM 69.8 °F 66.2 °F 88% 30.02 in 10.0 mi South 5.8 mph - N/A   Mostly Cloudy
1:40 PM 68.0 °F 66.2 °F 94% 30.02 in 10.0 mi SSE 3.5 mph - N/A   Overcast
1:41 PM 68.0 °F 66.2 °F 94% 30.02 in 10.0 mi Variable 3.5 mph - N/A   Mostly Cloudy
1:46 PM 68.0 °F 66.2 °F 94% 30.02 in 10.0 mi South 4.6 mph - N/A   Mostly Cloudy
1:47 PM 68.0 °F 66.2 °F 94% 30.02 in 10.0 mi South 4.6 mph - N/A   Mostly Cloudy
1:48 PM 68.0 °F 66.2 °F 94% 30.02 in 10.0 mi South 5.8 mph - N/A   Mostly Cloudy
1:54 PM 69.8 °F 66.2 °F 88% 30.02 in 10.0 mi SSW 3.5 mph - N/A   Mostly Cloudy
1:55 PM 69.1 °F 66.6 °F 92% 30.02 in 10.0 mi SSW 3.5 mph - N/A   Mostly Cloudy
2:10 PM 69.8 °F 66.2 °F 88% 30.01 in 10.0 mi South 4.6 mph - N/A   Mostly Cloudy
2:12 PM 69.8 °F 66.2 °F 88% 30.01 in 10.0 mi Variable 4.6 mph - N/A   Mostly Cloudy
2:16 PM 69.8 °F 66.2 °F 88% 30.01 in 10.0 mi South 4.6 mph - N/A   Mostly Cloudy
2:17 PM 69.8 °F 66.2 °F 88% 30.01 in 9.0 mi South 4.6 mph - N/A Rain Light Rain
2:19 PM 69.8 °F 66.2 °F 88% 30.01 in 8.0 mi South 3.5 mph - N/A   Light Drizzle
2:28 PM 69.8 °F 66.2 °F 88% 30.00 in 4.0 mi Calm Calm - N/A   Light Drizzle
2:33 PM 69.8 °F 66.2 °F 88% 30.00 in 4.0 mi SE 3.5 mph - N/A   Light Drizzle
2:38 PM 69.8 °F 66.2 °F 88% 30.00 in 2.5 mi SSE 3.5 mph - N/A Rain Rain
2:42 PM 68.0 °F 66.2 °F 94% 30.00 in 1.8 mi Calm Calm - N/A Rain Light Rain
2:45 PM 68.0 °F 66.2 °F 94% 30.01 in 1.5 mi Calm Calm - N/A Rain Light Rain
2:51 PM 68.0 °F 66.2 °F 94% 30.00 in 2.0 mi Calm Calm - N/A Rain Light Rain
2:53 PM 68.0 °F 66.2 °F 94% 30.00 in 3.0 mi Calm Calm - N/A Rain Light Rain
2:55 PM 68.4 °F 65.8 °F 92% 30.00 in 3.0 mi ENE 3.5 mph - 0.04 in   Light Drizzle
3:02 PM 68.0 °F 66.2 °F 94% 30.00 in 8.0 mi Calm Calm - N/A   Mostly Cloudy
3:03 PM 68.0 °F 66.2 °F 94% 30.00 in 9.0 mi Calm Calm - N/A   Mostly Cloudy
3:05 PM 68.0 °F 66.2 °F 94% 29.99 in 10.0 mi ENE 5.8 mph - N/A   Mostly Cloudy
3:11 PM 69.8 °F 66.2 °F 88% 29.99 in 10.0 mi NNE 4.6 mph - N/A   Mostly Cloudy
3:18 PM 69.8 °F 66.2 °F 88% 29.99 in 10.0 mi North 4.6 mph - N/A   Mostly Cloudy
3:19 PM 69.8 °F 66.2 °F 88% 29.99 in 10.0 mi North 4.6 mph - N/A   Mostly Cloudy
3:20 PM 69.8 °F 66.2 °F 88% 29.99 in 10.0 mi North 4.6 mph - N/A   Mostly Cloudy
3:25 PM 69.8 °F 66.2 °F 88% 29.99 in 10.0 mi NNW 5.8 mph - N/A   Overcast
3:26 PM 69.8 °F 66.2 °F 88% 29.99 in 10.0 mi NW 6.9 mph - N/A   Overcast
3:29 PM 69.8 °F 66.2 °F 88% 29.99 in 10.0 mi NW 4.6 mph - N/A   Overcast
3:30 PM 69.8 °F 66.2 °F 88% 30.00 in 10.0 mi WNW 4.6 mph - N/A   Overcast
3:42 PM 69.8 °F 66.2 °F 88% 30.00 in 9.0 mi West 5.8 mph - N/A   Light Drizzle
3:49 PM 69.8 °F 66.2 °F 88% 30.00 in 6.0 mi West 4.6 mph - N/A   Drizzle
3:54 PM 69.8 °F 66.2 °F 88% 30.00 in 5.0 mi West 3.5 mph - N/A   Drizzle
3:55 PM 68.9 °F 65.5 °F 89% 30.00 in 5.0 mi West 3.5 mph - 0.00 in   Drizzle
4:03 PM 69.8 °F 66.2 °F 88% 29.99 in 3.0 mi West 6.9 mph - N/A Rain Light Rain
4:15 PM 68.0 °F 66.2 °F 94% 30.00 in 10.0 mi Calm Calm - N/A   Mostly Cloudy
4:19 PM 68.0 °F 66.2 °F 94% 30.00 in 10.0 mi Calm Calm - N/A   Mostly Cloudy
4:55 PM 70.9 °F 66.2 °F 85% 30.00 in 10.0 mi SSW 3.5 mph - 0.02 in   Mostly Cloudy
4:59 PM 71.6 °F 66.2 °F 83% 29.99 in 10.0 mi Calm Calm - N/A   Light Drizzle
5:08 PM 69.8 °F 66.2 °F 88% 30.00 in 10.0 mi SSW 3.5 mph - N/A   Scattered Clouds
5:55 PM 69.8 °F 65.3 °F 86% 30.00 in 10.0 mi South 4.6 mph - 0.00 in   Scattered Clouds
6:55 PM 67.1 °F 63.9 °F 89% 30.02 in 10.0 mi Variable 3.5 mph - N/A   Clear
7:55 PM 66.0 °F 62.8 °F 89% 30.04 in 10.0 mi South 4.6 mph - N/A   Clear
8:38 PM 66.2 °F 62.6 °F 88% 30.05 in 10.0 mi Calm Calm - N/A   Partly Cloudy
8:45 PM 66.2 °F 62.6 °F 88% 30.04 in 10.0 mi Calm Calm - N/A   Mostly Cloudy
8:55 PM 65.8 °F 63.0 °F 90% 30.05 in 10.0 mi Calm Calm - N/A   Mostly Cloudy
9:15 PM 64.4 °F 62.6 °F 94% 30.05 in 10.0 mi Calm Calm - N/A   Scattered Clouds
9:55 PM 64.4 °F 62.4 °F 93% 30.06 in 10.0 mi Calm Calm - N/A   Mostly Cloudy
10:55 PM 64.2 °F 61.9 °F 92% 30.06 in 10.0 mi Calm Calm - N/A   Scattered Clouds
11:55 PM 61.7 °F 60.1 °F 94% 30.06 in 10.0 mi Calm Calm - N/A   Clear